Stündliche Wetter 1-e Maya

Heute, 4 März, Donnerstag

Zeit Temperatur Niederschläge Wind Luftdruck Luftfeuchtigkeit
00:00 -3°C° 0 mm 4 m/S 745 mmHg 91%
01:00 -4°C° 0 mm 5 m/S 744 mmHg 91%
02:00 -5°C° 0 mm 5 m/S 743 mmHg 92%
03:00 -3°C° 0 mm 4 m/S 743 mmHg 92%
04:00 -4°C° 0.1 mm 5 m/S 742 mmHg 93%
05:00 -4°C° 0.1 mm 5 m/S 741 mmHg 94%
06:00 -3°C° 0.1 mm 6 m/S 740 mmHg 95%
07:00 -3°C° 0.3 mm 6 m/S 740 mmHg 94%
08:00 -3°C° 0.3 mm 6 m/S 739 mmHg 94%
09:00 -3°C° 0 mm 7 m/S 739 mmHg 93%
10:00 -3°C° 0.1 mm 6 m/S 739 mmHg 94%
11:00 -3°C° 0.1 mm 6 m/S 739 mmHg 94%
12:00 -3°C° 0.1 mm 6 m/S 739 mmHg 95%
13:00 -3°C° 0.1 mm 6 m/S 738 mmHg 95%
14:00 -2°C° 0.1 mm 5 m/S 738 mmHg 95%
15:00 -1°C° 0 mm 3 m/S 738 mmHg 96%
16:00 -1°C° 0.2 mm 3 m/S 738 mmHg 96%
17:00 -1°C° 0.2 mm 2 m/S 738 mmHg 96%
18:00 -2°C° 0.2 mm 2 m/S 738 mmHg 96%
19:00 -2°C° 0.2 mm 2 m/S 738 mmHg 93%
20:00 -1°C° 0.2 mm 1 m/S 738 mmHg 90%
21:00 -2°C° 0.2 mm 1 m/S 739 mmHg 88%
22:00 -2°C° 0.1 mm 1 m/S 739 mmHg 91%
23:00 -2°C° 0.1 mm 1 m/S 739 mmHg 94%

Morgen, 5 März, Freitag

Zeit Temperatur Niederschläge Wind Luftdruck Luftfeuchtigkeit
00:00 -3°C° 0.1 mm 1 m/S 739 mmHg 97%
01:00 -4°C° 0.1 mm 1 m/S 739 mmHg 96%
02:00 -4°C° 0.1 mm 1 m/S 740 mmHg 96%
03:00 -6°C° 0.1 mm 1 m/S 740 mmHg 95%
04:00 -7°C° 0 mm 1 m/S 741 mmHg 95%
05:00 -9°C° 0 mm 2 m/S 741 mmHg 95%
06:00 -10°C° 0 mm 2 m/S 741 mmHg 95%
07:00 -9°C° 0 mm 2 m/S 742 mmHg 94%
08:00 -8°C° 0 mm 2 m/S 742 mmHg 93%
09:00 -8°C° 0 mm 2 m/S 743 mmHg 92%
10:00 -6°C° 0 mm 2 m/S 743 mmHg 89%
11:00 -6°C° 0 mm 3 m/S 744 mmHg 86%
12:00 -5°C° 0 mm 3 m/S 744 mmHg 83%
13:00 -5°C° 0.1 mm 3 m/S 744 mmHg 81%
14:00 -4°C° 0.1 mm 4 m/S 745 mmHg 78%
15:00 -4°C° 0.1 mm 4 m/S 745 mmHg 75%
16:00 -5°C° 0 mm 3 m/S 746 mmHg 79%
17:00 -7°C° 0 mm 3 m/S 746 mmHg 83%
18:00 -7°C° 0 mm 2 m/S 746 mmHg 87%
19:00 -8°C° 0 mm 2 m/S 747 mmHg 87%
20:00 -9°C° 0 mm 2 m/S 748 mmHg 88%
21:00 -10°C° 0 mm 2 m/S 748 mmHg 89%
22:00 -10°C° 0 mm 2 m/S 748 mmHg 89%
23:00 -10°C° 0 mm 1 m/S 749 mmHg 89%

übermorgen, 6 März, Samstag

Zeit Temperatur Niederschläge Wind Luftdruck Luftfeuchtigkeit
00:00 -10°C° 0 mm 1 m/S 749 mmHg 89%
01:00 -11°C° 0 mm 1 m/S 749 mmHg 90%
02:00 -11°C° 0 mm 1 m/S 750 mmHg 90%
03:00 -12°C° 0 mm 1 m/S 750 mmHg 91%
04:00 -12°C° 0 mm 0 m/S 750 mmHg 92%
05:00 -13°C° 0 mm 0 m/S 750 mmHg 92%
06:00 -13°C° 0 mm 0 m/S 749 mmHg 93%
07:00 -12°C° 0 mm 0 m/S 750 mmHg 92%
08:00 -11°C° 0 mm 0 m/S 750 mmHg 91%
09:00 -10°C° 0 mm 0 m/S 750 mmHg 91%
10:00 -8°C° 0 mm 1 m/S 750 mmHg 89%
11:00 -7°C° 0 mm 1 m/S 750 mmHg 87%
12:00 -6°C° 0 mm 1 m/S 750 mmHg 86%
13:00 -4°C° 0.1 mm 1 m/S 750 mmHg 86%
14:00 -4°C° 0.1 mm 1 m/S 749 mmHg 87%
15:00 -4°C° 0.1 mm 1 m/S 749 mmHg 88%
16:00 -6°C° 0.1 mm 1 m/S 749 mmHg 89%
17:00 -7°C° 0.1 mm 1 m/S 749 mmHg 89%
18:00 -7°C° 0.1 mm 1 m/S 749 mmHg 90%
19:00 -9°C° 0 mm 1 m/S 749 mmHg 91%
20:00 -10°C° 0 mm 1 m/S 750 mmHg 91%
21:00 -11°C° 0 mm 1 m/S 750 mmHg 92%
22:00 -12°C° 0 mm 1 m/S 750 mmHg 92%
23:00 -12°C° 0 mm 1 m/S 749 mmHg 92%

7 März, Sonntag

Zeit Temperatur Niederschläge Wind Luftdruck Luftfeuchtigkeit
00:00 -15°C° 0 mm 2 m/S 749 mmHg 93%
01:00 -15°C° 0 mm 2 m/S 749 mmHg 93%
02:00 -15°C° 0 mm 2 m/S 748 mmHg 93%
03:00 -16°C° 0 mm 3 m/S 748 mmHg 93%
04:00 -15°C° 0 mm 3 m/S 747 mmHg 91%
05:00 -15°C° 0 mm 4 m/S 746 mmHg 90%
06:00 -15°C° 0 mm 4 m/S 745 mmHg 89%
07:00 -14°C° 0.1 mm 5 m/S 745 mmHg 89%
08:00 -14°C° 0.1 mm 6 m/S 744 mmHg 90%
09:00 -12°C° 0.1 mm 6 m/S 743 mmHg 90%
10:00 -12°C° 0.2 mm 7 m/S 742 mmHg 88%
11:00 -11°C° 0.2 mm 7 m/S 741 mmHg 86%
12:00 -10°C° 0.2 mm 8 m/S 740 mmHg 84%
13:00 -8°C° 0.7 mm 7 m/S 739 mmHg 87%
14:00 -8°C° 0.7 mm 7 m/S 737 mmHg 90%
15:00 -8°C° 0.7 mm 7 m/S 736 mmHg 93%
16:00 -8°C° 0.7 mm 7 m/S 736 mmHg 91%
17:00 -8°C° 0.7 mm 7 m/S 736 mmHg 90%
18:00 -9°C° 0.7 mm 7 m/S 736 mmHg 88%
19:00 -10°C° 0.1 mm 6 m/S 736 mmHg 87%
20:00 -11°C° 0.1 mm 5 m/S 737 mmHg 85%
21:00 -12°C° 0.1 mm 4 m/S 738 mmHg 83%
22:00 -12°C° 0 mm 4 m/S 738 mmHg 82%
23:00 -14°C° 0 mm 4 m/S 739 mmHg 82%

8 März, Montag

Zeit Temperatur Niederschläge Wind Luftdruck Luftfeuchtigkeit
00:00 -14°C° 0 mm 4 m/S 739 mmHg 81%
01:00 -15°C° 0 mm 4 m/S 739 mmHg 81%
02:00 -15°C° 0 mm 4 m/S 739 mmHg 82%
03:00 -16°C° 0 mm 4 m/S 739 mmHg 83%
04:00 -15°C° 0 mm 3 m/S 738 mmHg 83%
05:00 -15°C° 0 mm 3 m/S 738 mmHg 83%
06:00 -15°C° 0 mm 3 m/S 737 mmHg 84%
07:00 -14°C° 0 mm 3 m/S 737 mmHg 86%
08:00 -13°C° 0 mm 3 m/S 736 mmHg 88%
09:00 -12°C° 0 mm 3 m/S 736 mmHg 90%
10:00 -10°C° 0.4 mm 3 m/S 736 mmHg 91%
11:00 -8°C° 0.4 mm 2 m/S 736 mmHg 92%
12:00 -7°C° 0.4 mm 2 m/S 736 mmHg 93%
13:00 -7°C° 0.3 mm 3 m/S 737 mmHg 91%
14:00 -7°C° 0.3 mm 3 m/S 738 mmHg 89%
15:00 -7°C° 0.3 mm 3 m/S 739 mmHg 88%
16:00 -7°C° 0.1 mm 3 m/S 740 mmHg 89%
17:00 -7°C° 0.1 mm 3 m/S 741 mmHg 90%
18:00 -8°C° 0.1 mm 3 m/S 742 mmHg 91%
19:00 -9°C° 0.1 mm 3 m/S 743 mmHg 90%
20:00 -10°C° 0.1 mm 3 m/S 744 mmHg 89%
21:00 -12°C° 0.1 mm 4 m/S 745 mmHg 88%
22:00 -14°C° 0 mm 3 m/S 745 mmHg 90%
23:00 -15°C° 0 mm 3 m/S 746 mmHg 92%

9 März, Dienstag

Zeit Temperatur Niederschläge Wind Luftdruck Luftfeuchtigkeit
00:00 -16°C° 0 mm 2 m/S 746 mmHg 95%
01:00 -16°C° 0 mm 2 m/S 746 mmHg 95%
02:00 -17°C° 0 mm 2 m/S 747 mmHg 95%
03:00 -17°C° 0 mm 2 m/S 747 mmHg 96%
04:00 -18°C° 0 mm 2 m/S 748 mmHg 96%
05:00 -18°C° 0 mm 2 m/S 748 mmHg 96%
06:00 -16°C° 0 mm 1 m/S 748 mmHg 97%
07:00 -17°C° 0 mm 2 m/S 749 mmHg 96%
08:00 -16°C° 0 mm 2 m/S 749 mmHg 95%
09:00 -15°C° 0 mm 2 m/S 750 mmHg 94%
10:00 -14°C° 0 mm 2 m/S 750 mmHg 91%
11:00 -13°C° 0 mm 2 m/S 750 mmHg 89%
12:00 -12°C° 0 mm 2 m/S 751 mmHg 86%
13:00 -13°C° 0 mm 3 m/S 751 mmHg 86%
14:00 -13°C° 0 mm 3 m/S 751 mmHg 86%
15:00 -13°C° 0 mm 3 m/S 752 mmHg 85%
16:00 -14°C° 0 mm 3 m/S 752 mmHg 87%
17:00 -14°C° 0 mm 3 m/S 752 mmHg 88%
18:00 -14°C° 0 mm 2 m/S 752 mmHg 90%
19:00 -15°C° 0 mm 2 m/S 753 mmHg 91%
20:00 -17°C° 0 mm 2 m/S 753 mmHg 93%
21:00 -18°C° 0 mm 2 m/S 754 mmHg 94%
22:00 -19°C° 0 mm 2 m/S 754 mmHg 95%
23:00 -20°C° 0 mm 2 m/S 754 mmHg 96%
Mehr zeigen

Wir brauchen deine Erlaubnis

Meteoprog und unser Service Anbieter werden persönliche Daten aufbewahren, so wie Cookies, Geräte Bezeichnung oder ähnliche Technologien von deinem Gerät und Prozess, so wie Persönliche Daten Inhalte und Werbungen, genauso wie social Media und den Verkehr zu analysieren.

  • Aufbewahrung und/oder Zugang zu deiner Geräte Informationen.

    Cookies, Geräte Bezeichnung oder andere Informationen, können aufbewahrt oder Zugang zu deinem Gerät erhalten, für den Grund, der oben angegeben wird.

  • Personalisierte Werbung und Inhalte, Messungen, Einblick in das Publikum und Produkt Entwicklung.

    Werbungen und Inhalte können personalisiert werden, basierend auf ein Profil. Mehr Daten können besser personalisierte Werbungen und Inhalte hinzufügen. Werbung und Inhalte können gezeigt und gemessen werden. Einblicke über das Publikum, welche die Werbung gesehen haben und den Inhalt, können abgeleitet werden. So wie Daten können genutzt werden, um es zu verbessern oder die Benutzer Erfahrung zu verbessern das System und die Software.

Wenn du “Ich stimme zu” klickst, erlaubst du uns, die Cookies zu benutzen die Geräte Bezeichnung, den Web oder ähnliche Technologien zu benutzen. Deine Settings, können in deinem Gerät bei deinem Browser geändert werden.

Für den bestimmten Zweck, berechtigten Interessen beruhen darauf, mehr als auf den Inhalt. Du kannst mehr darüber in unseren Privaten und Cookie Politik lesen.